• En España
  • Lista de países
  • Para 7 días
  • Temperatura del agua
  • Mapa Satelital
  • El tiempo en el mapa
  • Informadores
  • user-avatar
    Iniciar sesión

    Tiempo cada hora Voskresency

    Hoy, 15 Agosto, Miércoles

    Tiempo Temperatura Precipitaciones Viento Presión Humedad
    00:00 +12°C° 0 mm 1 mps 743 mmHg 94%
    01:00 +11°C° 0 mm 1 mps 743 mmHg 95%
    02:00 +11°C° 0 mm 1 mps 743 mmHg 95%
    03:00 +11°C° 0 mm 1 mps 744 mmHg 95%
    04:00 +10°C° 0 mm 1 mps 744 mmHg 95%
    05:00 +11°C° 0 mm 1 mps 744 mmHg 92%
    06:00 +12°C° 0 mm 1 mps 744 mmHg 89%
    07:00 +13°C° 0 mm 1 mps 744 mmHg 85%
    08:00 +15°C° 0 mm 1 mps 744 mmHg 75%
    09:00 +18°C° 0 mm 1 mps 744 mmHg 65%
    10:00 +19°C° 0 mm 2 mps 745 mmHg 55%
    11:00 +20°C° 0 mm 2 mps 745 mmHg 52%
    12:00 +21°C° 0 mm 2 mps 744 mmHg 49%
    13:00 +23°C° 0 mm 2 mps 744 mmHg 46%
    14:00 +21°C° 0,1 mm 2 mps 744 mmHg 48%
    15:00 +21°C° 0,1 mm 2 mps 744 mmHg 51%
    16:00 +21°C° 0,1 mm 2 mps 745 mmHg 54%
    17:00 +20°C° 0,1 mm 2 mps 745 mmHg 63%
    18:00 +19°C° 0,1 mm 2 mps 745 mmHg 72%
    19:00 +18°C° 0,1 mm 1 mps 745 mmHg 81%
    20:00 +16°C° 0 mm 1 mps 745 mmHg 86%
    21:00 +15°C° 0 mm 1 mps 745 mmHg 90%
    22:00 +13°C° 0 mm 1 mps 745 mmHg 94%
    23:00 +13°C° 0 mm 1 mps 745 mmHg 95%

    Mañana, 16 Agosto, Jueves

    Tiempo Temperatura Precipitaciones Viento Presión Humedad
    00:00 +12°C° 0 mm 1 mps 745 mmHg 95%
    01:00 +11°C° 0 mm 0 mps 745 mmHg 96%
    02:00 +11°C° 0 mm 0 mps 745 mmHg 96%
    03:00 +12°C° 0 mm 1 mps 745 mmHg 96%
    04:00 +12°C° 0 mm 1 mps 745 mmHg 97%
    05:00 +12°C° 0,3 mm 1 mps 745 mmHg 97%
    06:00 +12°C° 0,3 mm 0 mps 745 mmHg 97%
    07:00 +12°C° 0,3 mm 0 mps 745 mmHg 97%
    08:00 +13°C° 0,8 mm 1 mps 745 mmHg 97%
    09:00 +14°C° 0,8 mm 1 mps 744 mmHg 96%
    10:00 +14°C° 0,8 mm 1 mps 744 mmHg 96%
    11:00 +14°C° 0,4 mm 1 mps 744 mmHg 95%
    12:00 +15°C° 0,4 mm 1 mps 744 mmHg 94%
    13:00 +15°C° 0,4 mm 1 mps 743 mmHg 93%
    14:00 +15°C° 0,1 mm 1 mps 743 mmHg 90%
    15:00 +16°C° 0,1 mm 1 mps 743 mmHg 87%
    16:00 +16°C° 0,1 mm 1 mps 743 mmHg 84%
    17:00 +16°C° 0 mm 1 mps 743 mmHg 85%
    18:00 +16°C° 0 mm 1 mps 744 mmHg 85%
    19:00 +16°C° 0 mm 1 mps 744 mmHg 86%
    20:00 +14°C° 0 mm 1 mps 744 mmHg 89%
    21:00 +13°C° 0 mm 2 mps 744 mmHg 91%
    22:00 +12°C° 0 mm 2 mps 745 mmHg 94%
    23:00 +12°C° 0 mm 2 mps 745 mmHg 93%

    Pasado mañana, 17 Agosto, Viernes

    Tiempo Temperatura Precipitaciones Viento Presión Humedad
    00:00 +10°C° 0 mm 2 mps 745 mmHg 92%
    01:00 +10°C° 0 mm 2 mps 745 mmHg 92%
    02:00 +9°C° 0 mm 2 mps 745 mmHg 92%
    03:00 +8°C° 0 mm 2 mps 746 mmHg 93%
    04:00 +8°C° 0 mm 2 mps 746 mmHg 93%
    05:00 +9°C° 0 mm 2 mps 746 mmHg 88%
    06:00 +10°C° 0 mm 2 mps 747 mmHg 83%
    07:00 +12°C° 0 mm 2 mps 747 mmHg 78%
    08:00 +13°C° 0 mm 3 mps 747 mmHg 69%
    09:00 +16°C° 0 mm 3 mps 748 mmHg 61%
    10:00 +18°C° 0 mm 3 mps 748 mmHg 52%
    11:00 +18°C° 0,1 mm 3 mps 748 mmHg 52%
    12:00 +18°C° 0,1 mm 3 mps 748 mmHg 51%
    13:00 +19°C° 0,1 mm 4 mps 748 mmHg 51%
    14:00 +19°C° 0,1 mm 4 mps 748 mmHg 51%
    15:00 +18°C° 0,1 mm 4 mps 748 mmHg 51%
    16:00 +18°C° 0,1 mm 4 mps 749 mmHg 50%
    17:00 +17°C° 0 mm 4 mps 749 mmHg 55%
    18:00 +16°C° 0 mm 3 mps 749 mmHg 60%
    19:00 +13°C° 0 mm 3 mps 749 mmHg 64%
    20:00 +11°C° 0 mm 3 mps 750 mmHg 71%
    21:00 +10°C° 0 mm 2 mps 750 mmHg 78%
    22:00 +8°C° 0 mm 2 mps 750 mmHg 85%
    23:00 +7°C° 0 mm 2 mps 751 mmHg 89%

    18 Agosto, Sábado

    Tiempo Temperatura Precipitaciones Viento Presión Humedad
    00:00 +7°C° 0 mm 2 mps 751 mmHg 92%
    01:00 +6°C° 0 mm 2 mps 751 mmHg 95%
    02:00 +6°C° 0 mm 2 mps 751 mmHg 95%
    03:00 +6°C° 0 mm 2 mps 751 mmHg 95%
    04:00 +6°C° 0 mm 2 mps 752 mmHg 95%
    05:00 +7°C° 0 mm 2 mps 752 mmHg 92%
    06:00 +8°C° 0 mm 3 mps 752 mmHg 89%
    07:00 +8°C° 0 mm 3 mps 752 mmHg 87%
    08:00 +9°C° 0 mm 3 mps 753 mmHg 82%
    09:00 +10°C° 0 mm 3 mps 753 mmHg 78%
    10:00 +11°C° 0 mm 3 mps 753 mmHg 73%
    11:00 +12°C° 0 mm 3 mps 753 mmHg 65%
    12:00 +14°C° 0 mm 3 mps 753 mmHg 58%
    13:00 +17°C° 0 mm 3 mps 753 mmHg 50%
    14:00 +17°C° 0 mm 3 mps 753 mmHg 48%
    15:00 +18°C° 0 mm 3 mps 753 mmHg 47%
    16:00 +18°C° 0 mm 3 mps 752 mmHg 46%
    17:00 +17°C° 0 mm 2 mps 753 mmHg 52%
    18:00 +16°C° 0 mm 2 mps 753 mmHg 59%
    19:00 +15°C° 0 mm 1 mps 753 mmHg 65%
    20:00 +13°C° 0 mm 1 mps 753 mmHg 71%
    21:00 +12°C° 0 mm 1 mps 753 mmHg 77%
    22:00 +10°C° 0 mm 1 mps 753 mmHg 83%
    23:00 +9°C° 0 mm 1 mps 753 mmHg 85%

    19 Agosto, Domingo

    Tiempo Temperatura Precipitaciones Viento Presión Humedad
    00:00 +9°C° 0 mm 1 mps 754 mmHg 88%
    01:00 +7°C° 0 mm 0 mps 754 mmHg 90%
    02:00 +7°C° 0 mm 0 mps 754 mmHg 91%
    03:00 +6°C° 0 mm 0 mps 754 mmHg 91%
    04:00 +6°C° 0 mm 0 mps 754 mmHg 92%
    05:00 +8°C° 0 mm 0 mps 754 mmHg 86%
    06:00 +9°C° 0 mm 0 mps 754 mmHg 80%
    07:00 +11°C° 0 mm 0 mps 755 mmHg 75%
    08:00 +13°C° 0 mm 0 mps 754 mmHg 66%
    09:00 +16°C° 0 mm 0 mps 754 mmHg 58%
    10:00 +20°C° 0 mm 1 mps 754 mmHg 50%
    11:00 +21°C° 0 mm 1 mps 753 mmHg 47%
    12:00 +22°C° 0 mm 1 mps 753 mmHg 44%
    13:00 +23°C° 0 mm 1 mps 753 mmHg 42%
    14:00 +23°C° 0 mm 1 mps 752 mmHg 42%
    15:00 +23°C° 0 mm 1 mps 752 mmHg 43%
    16:00 +23°C° 0 mm 1 mps 752 mmHg 44%
    17:00 +22°C° 0 mm 1 mps 752 mmHg 51%
    18:00 +20°C° 0 mm 1 mps 752 mmHg 58%
    19:00 +19°C° 0 mm 1 mps 751 mmHg 65%
    20:00 +16°C° 0 mm 1 mps 751 mmHg 69%
    21:00 +15°C° 0 mm 1 mps 751 mmHg 73%
    22:00 +14°C° 0 mm 1 mps 751 mmHg 76%
    23:00 +13°C° 0 mm 1 mps 751 mmHg 79%

    20 Agosto, Lunes

    Tiempo Temperatura Precipitaciones Viento Presión Humedad
    00:00 +12°C° 0 mm 1 mps 751 mmHg 82%
    01:00 +12°C° 0 mm 1 mps 751 mmHg 84%
    02:00 +11°C° 0 mm 1 mps 751 mmHg 86%
    03:00 +11°C° 0 mm 1 mps 751 mmHg 88%
    04:00 +11°C° 0 mm 1 mps 751 mmHg 90%
    05:00 +12°C° 0 mm 1 mps 751 mmHg 86%
    06:00 +13°C° 0 mm 1 mps 751 mmHg 81%
    07:00 +14°C° 0 mm 1 mps 751 mmHg 77%
    08:00 +16°C° 0 mm 1 mps 750 mmHg 69%
    09:00 +19°C° 0 mm 1 mps 750 mmHg 62%
    10:00 +20°C° 0 mm 2 mps 750 mmHg 55%
    11:00 +21°C° 0 mm 2 mps 750 mmHg 51%
    12:00 +23°C° 0 mm 2 mps 749 mmHg 47%
    13:00 +24°C° 0 mm 2 mps 749 mmHg 44%
    14:00 +24°C° 0 mm 2 mps 748 mmHg 44%
    15:00 +24°C° 0 mm 2 mps 748 mmHg 45%
    16:00 +24°C° 0 mm 2 mps 748 mmHg 45%
    17:00 +23°C° 0 mm 2 mps 748 mmHg 53%
    18:00 +20°C° 0 mm 2 mps 747 mmHg 61%
    19:00 +20°C° 0 mm 1 mps 747 mmHg 69%
    20:00 +18°C° 0 mm 1 mps 747 mmHg 73%
    21:00 +16°C° 0 mm 1 mps 747 mmHg 78%
    22:00 +14°C° 0 mm 1 mps 747 mmHg 82%
    23:00 +14°C° 0 mm 1 mps 747 mmHg 84%
    Mostrar más